Retour au catalogue

SL-8 R/B

ActifLEO
NORAD 8459·ROCKET BODY·🇷🇺 Russia

Lancé Nov 28, 1975 depuis Plesetsk Cosmodrome

Loading…

Prochains Passages (prochaines 24 heures)

TLE

FraisSource: Space-Track

Époque: Sep 13, 2026, 20:44 UTC

1  8459U 75112B   26256.86432420  .00000131  00000-0  51652-4 0  9990
2  8459  74.0617  32.7275 0014657  75.2407 285.0371 14.38278344658927

Suivez SL-8 R/B en temps réel avec AllMySat

Download on the App Store